Location: Malvern Link
(52.1333°N, 2.3000°W)
Time: 05:11:03
(UTC+00:00)

SPROUT - Pass Details

Date: 04 July 2022
Orbit: 588 x 598 km, 97.9° (Epoch: 18 August)

Event Time Altitude Azimuth Distance (km) Brightness Sun altitude
Exits shadow 02:24:36 - 245° (WSW) 2,062 ? -9.7°
Reaches altitude 10° 02:25:32 10° 257° (WSW) 1,920 ? -9.6°
Maximum altitude 02:26:47 11° 274° (W) 1,848 ? -9.5°
Drops below altitude 10° 02:28:02 10° 292° (WNW) 1,925 ? -9.4°
Sets 02:31:51 0° 328° (NNW) 2,837 ? -9.1°
